Weather History for Wright-Patt AFB, OH

Change the Weather History Date:

Thursday, April 24, 2014

  Actual Average Record
Temperature  
Mean Temperature 54 °F -  
Max Temperature 63 °F 63 °F 78 °F (2008)
Min Temperature 44 °F 41 °F 32 °F (2005)
Degree Days  
Heating Degree Days 12    
Growing Degree Days 4 (Base 50)    
Moisture  
Dew Point 24 °F    
Average Humidity 35    
Maximum Humidity 58    
Minimum Humidity 18    
Precipitation  
Precipitation 0.00 in - - ()
Sea Level Pressure  
Sea Level Pressure 30.03 in    
Wind  
Wind Speed 8 mph (East)    
Max Wind Speed 16 mph    
Max Gust Speed -    
Visibility 10 miles    
Events      
Averages and records for this station are not official NWS values.
T = Trace of Precipitation, MM = Missing Value Source: NWS Daily Summary

Daily Weather History Graph

Daily Weather History Graph

Search for Another Location

Airport:

Trip Planner

Search our weather history database for the weather conditions in past years. The results will help you decide how hot, cold, wet, or windy it might be!

Date:

Astronomy

Apr. 24, 2014 Rise Set
Actual Time 6:45 AM EDT 8:23 PM EDT
Civil Twilight 6:17 AM EDT 8:52 PM EDT
Nautical Twilight 5:42 AM EDT 9:26 PM EDT
Astronomical Twilight 5:05 AM EDT 10:03 PM EDT
Moon 3:55 AM EDT (4/24) 3:38 PM EDT (4/24)
Length of Visible Light 14h 35m
Length of Day
13h 37m
Waning Crescent, 24% of the Moon is Illuminated
Apr 24
Waning Crescent
Apr 29
New
May 6
First Quarter
May 14
Full
May 21
Last Quarter

Hourly Weather History & Observations

Time (EDT) Temp. Windchill Dew Point Humidity Pressure Visibility Wind Dir Wind Speed Gust Speed Precip Events Conditions
12:58 AM 46.0 °F 41.9 °F 32.2 °F 58% 30.12 in 10.0 mi ENE 8.1 mph - N/A   Overcast
1:58 AM 46.0 °F - 32.2 °F 58% 30.11 in 10.0 mi East 2.3 mph - N/A   Overcast
2:58 AM 46.6 °F - 32.0 °F 57% 30.10 in 10.0 mi East 6.9 mph - N/A   Overcast
3:58 AM 46.0 °F 41.9 °F 32.2 °F 58% 30.09 in 10.0 mi ESE 8.1 mph - N/A   Overcast
4:58 AM 45.1 °F 41.4 °F 28.8 °F 53% 30.11 in 10.0 mi East 6.9 mph - N/A   Overcast
5:58 AM 45.1 °F 42.0 °F 27.0 °F 49% 30.13 in 10.0 mi East 5.8 mph - N/A   Overcast
6:58 AM 44.8 °F 41.0 °F 27.3 °F 50% 30.14 in 10.0 mi East 6.9 mph - N/A   Mostly Cloudy
7:58 AM 45.0 °F 40.6 °F 29.1 °F 54% 30.15 in 10.0 mi East 8.1 mph - N/A   Mostly Cloudy
8:58 AM 48.6 °F - 25.9 °F 41% 30.16 in 10.0 mi East 10.4 mph - N/A   Mostly Cloudy
9:58 AM 51.1 °F - 17.1 °F 26% 30.14 in 10.0 mi ESE 11.5 mph - N/A   Overcast
10:58 AM 51.4 °F - 16.3 °F 25% 30.13 in 10.0 mi East 11.5 mph - N/A   Scattered Clouds
11:58 AM 54.3 °F - 17.8 °F 24% 30.11 in 10.0 mi East 16.1 mph - N/A   Mostly Cloudy
12:58 PM 57.9 °F - 19.4 °F 22% 30.07 in 10.0 mi East 11.5 mph - N/A   Clear
1:58 PM 59.9 °F - 19.6 °F 21% 30.03 in 10.0 mi East 15.0 mph - N/A   Partly Cloudy
2:58 PM 61.7 °F - 20.3 °F 20% 30.00 in 10.0 mi SE 12.7 mph - N/A   Partly Cloudy
3:58 PM 63.1 °F - 19.0 °F 18% 29.98 in 10.0 mi SE 11.5 mph - N/A   Mostly Cloudy
4:58 PM 62.6 °F - 24.8 °F 24% 29.95 in 10.0 mi East 5.8 mph - N/A   Light Drizzle
5:58 PM 62.6 °F - 21.2 °F 20% 29.93 in 10.0 mi ESE 12.7 mph - 0.00 in   Partly Cloudy
6:58 PM 62.6 °F - 21.0 °F 20% 29.90 in 10.0 mi East 11.5 mph - 0.00 in   Clear
7:58 PM 60.3 °F - 20.7 °F 22% 29.87 in 10.0 mi East 8.1 mph - N/A   Clear
8:58 PM 57.4 °F - 23.0 °F 27% 29.86 in 10.0 mi East 8.1 mph - N/A   Mostly Cloudy
9:58 PM 55.4 °F - 24.3 °F 30% 29.87 in 10.0 mi East 8.1 mph - N/A   Clear
10:58 PM 55.8 °F - 23.7 °F 29% 29.84 in 10.0 mi East 8.1 mph - N/A   Scattered Clouds
11:58 PM 56.8 °F - 22.6 °F 27% 29.81 in 10.0 mi ESE 6.9 mph - N/A   Mostly Cloudy